"2016-01-26 00:00:00",1317531,6.573,67.5,6.888,1.364,4.487,99.255,-2.598,-1.386,52.23,0,109.5,13.23,-1.86,29.5
"2016-01-26 00:00:30",1317532,6.202,67.66,8.05,1.308,4.777,99.2567,-2.594,-1.307,52.01,0,109.6,13.23,-1.85,29.7
"2016-01-26 00:01:00",1317533,6.827,72.12,7.358,1.304,4.69,99.25585,-2.596,-1.339,52.02,0,109.5,13.23,-1.85,34.1
"2016-01-26 00:01:30",1317534,6.816,74.13,7.229,1.306,4.292,99.25924,-2.588,-1.316,52.24,0,109.6,13.23,-1.84,36.1
"2016-01-26 00:02:00",1317535,7.065,80.4,6.907,1.396,4.058,99.26234,-2.58,-1.332,52.36,0,109.6,13.23,-1.84,42.4
"2016-01-26 00:02:30",1317536,7.162,79.76,7.913,1.412,3.916,99.26262,-2.579,-1.318,52.46,0,109.5,13.22,-1.84,41.8
"2016-01-26 00:03:00",1317537,7.488,73.4,7.287,1.353,4.009,99.26855,-2.564,-1.348,52.2,0,109.5,13.22,-1.82,35.4
"2016-01-26 00:03:30",1317538,7.002,69,6.47,1.395,3.284,99.26772,-2.566,-1.369,51.79,0,109.6,13.22,-1.82,31.0
"2016-01-26 00:04:00",1317539,6.535,78.58,8.02,1.372,3.328,99.26517,-2.572,-1.391,51.59,0,109.5,13.22,-1.83,40.6
"2016-01-26 00:04:30",1317540,7.454,79.64,7.173,1.386,4.556,99.26827,-2.564,-1.318,51.74,0,109.5,13.22,-1.82,41.6
"2016-01-26 00:05:00",1317541,7.001,82.5,6.346,1.318,5.135,99.26913,-2.562,-1.265,52.01,0,109.5,13.22,-1.82,44.5
"2016-01-26 00:05:30",1317542,7.139,84.5,6.586,1.298,4.693,99.2742,-2.549,-1.265,52.28,0,109.5,13.22,-1.81,46.5
"2016-01-26 00:06:00",1317543,7.347,84.1,6.587,1.248,4.733,99.26942,-2.562,-1.268,52.3,0,109.6,13.22,-1.82,46.1
"2016-01-26 00:06:30",1317544,6.873,85.2,7.685,1.412,4.509,99.27084,-2.558,-1.288,52.21,0,109.5,13.22,-1.81,47.2
"2016-01-26 00:07:00",1317545,7.026,87.7,7.439,1.269,4.835,99.2717,-2.556,-1.283,52.02,0,109.5,13.22,-1.81,49.7
"2016-01-26 00:07:30",1317546,7.203,82.5,7.314,1.281,4.759,99.27,-2.56,-1.255,51.88,0,109.5,13.22,-1.82,44.5
"2016-01-26 00:08:00",1317547,7.498,80.3,8.66,1.307,4.234,99.27001,-2.56,-1.27,51.87,0,109.5,13.22,-1.82,42.3
"2016-01-26 00:08:30",1317548,7.718,70.56,6.789,1.334,4.043,99.26973,-2.561,-1.262,51.84,0,109.5,13.23,-1.82,32.6
"2016-01-26 00:09:00",1317549,6.674,78.24,7.688,1.355,4.231,99.26888,-2.563,-1.304,51.75,0,109.5,13.23,-1.82,40.2
"2016-01-26 00:09:30",1317550,6.587,78.77,7.795,1.366,3.792,99.26633,-2.569,-1.289,51.81,0,109.6,13.23,-1.83,40.8
"2016-01-26 00:10:00",1317551,5.253,73.54,8.05,1.39,3.066,99.26717,-2.567,-1.33,51.91,0,109.6,13.23,-1.82,35.5
"2016-01-26 00:10:30",1317552,5.324,73.93,8.15,1.345,2.889,99.26575,-2.571,-1.404,51.98,0,109.5,13.23,-1.83,35.9
"2016-01-26 00:11:00",1317553,4.606,72.14,8.02,1.22,1.926,99.26659,-2.569,-1.436,52.08,0,109.5,13.23,-1.83,34.1
"2016-01-26 00:11:30",1317554,5.588,80.7,8.44,1.449,4.254,99.26263,-2.579,-1.275,52.31,0,109.5,13.23,-1.84,42.7
"2016-01-26 00:12:00",1317555,5.444,66.06,8.59,1.415,4.087,99.26263,-2.579,-1.305,52.43,0,109.5,13.23,-1.84,28.1
"2016-01-26 00:12:30",1317556,5.722,65.24,7.884,1.356,4.455,99.26572,-2.571,-1.288,52.09,0,109.5,13.23,-1.83,27.2
"2016-01-26 00:13:00",1317557,4.846,79.29,9.21,1.412,4.579,99.25979,-2.586,-1.297,51.91,0,109.6,13.23,-1.84,41.3
"2016-01-26 00:13:30",1317558,5.078,78.11,6.841,1.358,2.525,99.26289,-2.578,-1.346,51.87,0,109.5,13.23,-1.84,40.1
"2016-01-26 00:14:00",1317559,5.005,73.28,7.649,1.268,2.477,99.25808,-2.59,-1.487,51.49,0,109.5,13.23,-1.85,35.3
"2016-01-26 00:14:30",1317560,5.656,77.8,8.11,1.386,3.176,99.25808,-2.59,-1.38,51.45,0,109.6,13.23,-1.85,39.8
"2016-01-26 00:15:00",1317561,6.031,78.83,6.575,1.385,4.089,99.25835,-2.59,-1.29,51.54,0,109.5,13.23,-1.85,40.8
"2016-01-26 00:15:30",1317562,6.527,76.37,6.702,1.344,4.673,99.25835,-2.59,-1.276,51.55,0,109.5,13.23,-1.85,38.4
"2016-01-26 00:16:00",1317563,6.181,72.28,7.101,1.407,4.042,99.2578,-2.591,-1.33,51.6,0,109.6,13.23,-1.85,34.3
"2016-01-26 00:16:30",1317564,6.21,75.23,7.265,1.317,4.177,99.25864,-2.589,-1.287,51.72,0,109.5,13.23,-1.85,37.2
"2016-01-26 00:17:00",1317565,5.938,71.41,9.18,1.438,3.287,99.26089,-2.583,-1.322,51.66,0,109.5,13.23,-1.84,33.4
"2016-01-26 00:17:30",1317566,5.688,67.42,6.782,1.373,2.43,99.26342,-2.577,-1.454,51.5,0,109.6,13.23,-1.83,29.4
"2016-01-26 00:18:00",1317567,5.678,69.23,7.208,1.371,2.885,99.26342,-2.577,-1.359,51.64,0,109.5,13.23,-1.83,31.2
"2016-01-26 00:18:30",1317568,6.801,72,7.363,1.332,4.335,99.26736,-2.567,-1.295,51.54,0,109.5,13.23,-1.82,34.0
"2016-01-26 00:19:00",1317569,6.945,67.37,7.808,1.365,4.453,99.26763,-2.566,-1.296,50.77,0,109.5,13.23,-1.82,29.4
"2016-01-26 00:19:30",1317570,7.221,71.75,7.207,1.334,4.789,99.26734,-2.567,-1.291,50.27,0,109.5,13.23,-1.82,33.8
"2016-01-26 00:20:00",1317571,7.099,67.5,8.05,1.397,4.381,99.26366,-2.576,-1.312,49.98,0,109.5,13.23,-1.83,29.5
"2016-01-26 00:20:30",1317572,7.362,66.62,7.319,1.377,4.365,99.25855,-2.589,-1.324,49.48,0,109.5,13.22,-1.85,28.6
"2016-01-26 00:21:00",1317573,7.145,63.3,6.641,1.247,4.752,99.25572,-2.596,-1.319,48.94,0,109.5,13.22,-1.85,25.3
"2016-01-26 00:21:30",1317574,6.912,61.76,6.737,1.292,4.472,99.25488,-2.599,-1.306,49,0,109.5,13.22,-1.86,23.8
"2016-01-26 00:22:00",1317575,6.946,62.9,6.757,1.284,4.925,99.25346,-2.602,-1.306,48.56,0,109.5,13.22,-1.86,24.9
"2016-01-26 00:22:30",1317576,7.039,64.5,6.082,1.251,4.209,99.2529,-2.604,-1.307,48.39,0,109.5,13.22,-1.86,26.5
"2016-01-26 00:23:00",1317577,7.025,63.47,6.956,1.287,4.357,99.25402,-2.601,-1.334,48.36,0,109.5,13.22,-1.86,25.5
"2016-01-26 00:23:30",1317578,6.727,64.23,7.343,1.265,4.616,99.25516,-2.598,-1.3,48.22,0,109.5,13.22,-1.86,26.2
"2016-01-26 00:24:00",1317579,6.514,70.1,6.287,1.273,4.396,99.25516,-2.598,-1.298,48.03,0,109.5,13.22,-1.86,32.1
"2016-01-26 00:24:30",1317580,6.952,69.24,6.266,1.338,4.361,99.256,-2.596,-1.32,47.83,0,109.5,13.23,-1.85,31.2
"2016-01-26 00:25:00",1317581,6.967,69.07,6.916,1.435,3.742,99.25715,-2.593,-1.353,47.71,0,109.5,13.23,-1.85,31.1
"2016-01-26 00:25:30",1317582,6.165,65.59,7.959,1.418,3.06,99.25799,-2.591,-1.405,47.65,0,109.5,13.23,-1.85,27.6
"2016-01-26 00:26:00",1317583,5.948,66.27,6.289,1.408,2.419,99.25431,-2.6,-1.469,47.66,0,109.5,13.23,-1.86,28.3
"2016-01-26 00:26:30",1317584,6.643,67.89,7.303,1.402,3.648,99.2543,-2.6,-1.347,47.75,0,109.5,13.23,-1.86,29.9
"2016-01-26 00:27:00",1317585,7.03,70.39,6.905,1.344,4.336,99.25403,-2.601,-1.324,47.87,0,109.5,13.23,-1.86,32.4
"2016-01-26 00:27:30",1317586,7.288,67.81,8.16,1.334,4.24,99.25318,-2.603,-1.365,47.98,0,109.5,13.23,-1.86,29.8
"2016-01-26 00:28:00",1317587,7.676,67.99,7.61,1.352,4.366,99.25233,-2.605,-1.287,47.78,0,109.5,13.23,-1.86,30.0
"2016-01-26 00:28:30",1317588,7.491,71.84,6.625,1.288,4.743,99.25261,-2.604,-1.298,47.72,0,109.5,13.23,-1.86,33.8
"2016-01-26 00:29:00",1317589,7.217,72.11,6.543,1.279,4.851,99.2529,-2.604,-1.324,47.76,0,109.5,13.23,-1.86,34.1
"2016-01-26 00:29:30",1317590,7.548,71,6.483,1.23,4.57,99.25346,-2.602,-1.314,47.75,0,109.5,13.23,-1.86,33.0
"2016-01-26 00:30:00",1317591,7.834,73.99,8.11,1.247,4.597,99.25204,-2.606,-1.325,47.82,0,109.5,13.23,-1.86,36.0
"2016-01-26 00:30:30",1317592,7.538,76.25,6.21,1.245,4.356,99.25204,-2.606,-1.319,47.98,0,109.5,13.23,-1.86,38.2
"2016-01-26 00:31:00",1317593,7.809,73.19,6.648,1.259,4.106,99.25289,-2.604,-1.315,48.01,0,109.5,13.23,-1.86,35.2
"2016-01-26 00:31:30",1317594,7.889,70.67,6.887,1.258,3.816,99.25176,-2.607,-1.331,47.74,0,109.5,13.23,-1.86,32.7
"2016-01-26 00:32:00",1317595,8,73.13,6.64,1.301,4.372,99.25091,-2.609,-1.336,47.72,0,109.5,13.23,-1.87,35.1
"2016-01-26 00:32:30",1317596,8.3,75.02,6.557,1.287,4.411,99.24695,-2.619,-1.323,47.57,0,109.5,13.23,-1.88,37.0
"2016-01-26 00:33:00",1317597,8.18,75.1,7.081,1.261,4.104,99.24297,-2.629,-1.32,47.39,0,109.5,13.23,-1.89,37.1
"2016-01-26 00:33:30",1317598,8.45,69.8,6.341,1.248,4.541,99.23958,-2.638,-1.332,47.31,0,109.5,13.23,-1.89,31.8
"2016-01-26 00:34:00",1317599,8.04,67.88,6.296,1.257,4.386,99.23816,-2.641,-1.316,47.4,0,109.5,13.23,-1.90,29.9
"2016-01-26 00:34:30",1317600,7.487,65.03,6.784,1.31,4.013,99.23788,-2.642,-1.339,47.46,0,109.5,13.23,-1.90,27.0
"2016-01-26 00:35:00",1317601,7.539,66.9,7.598,1.213,4.282,99.24012,-2.636,-1.348,47.49,0,109.5,13.23,-1.89,28.9
"2016-01-26 00:35:30",1317602,7.828,65.5,6.7,1.273,4.238,99.23928,-2.638,-1.361,47.6,0,109.6,13.23,-1.90,27.5
"2016-01-26 00:36:00",1317603,7.69,65.16,6.356,1.224,4.536,99.2373,-2.643,-1.366,47.62,0,109.5,13.23,-1.90,27.2
"2016-01-26 00:36:30",1317604,7.193,70.53,6.715,1.296,4.541,99.23956,-2.638,-1.324,47.59,0,109.5,13.23,-1.89,32.5
"2016-01-26 00:37:00",1317605,7.195,66.94,7.239,1.278,4.161,99.23815,-2.641,-1.333,47.56,0,109.5,13.22,-1.90,28.9
"2016-01-26 00:37:30",1317606,7.175,70.71,7.087,1.279,3.859,99.23759,-2.643,-1.385,47.56,0,109.5,13.22,-1.90,32.7
"2016-01-26 00:38:00",1317607,6.825,69,6.727,1.377,3.894,99.23956,-2.638,-1.361,47.56,0,109.5,13.22,-1.89,31.0
"2016-01-26 00:38:30",1317608,7.057,66.08,7.131,1.32,3.919,99.24012,-2.636,-1.378,47.53,0,109.5,13.22,-1.89,28.1
"2016-01-26 00:39:00",1317609,6.051,64.04,7.794,1.28,2.408,99.23984,-2.637,-1.441,47.47,0,109.5,13.23,-1.89,26.0
"2016-01-26 00:39:30",1317610,6.499,63.09,7.886,1.358,3.23,99.24152,-2.633,-1.429,47.52,0,109.5,13.23,-1.89,25.1
"2016-01-26 00:40:00",1317611,7.131,61.78,7.015,1.386,3.982,99.24293,-2.629,-1.348,47.59,0,109.5,13.23,-1.89,23.8
"2016-01-26 00:40:30",1317612,7.24,62.47,7.433,1.346,4.227,99.24265,-2.63,-1.376,47.55,0,109.5,13.23,-1.89,24.5
"2016-01-26 00:41:00",1317613,7.651,65.17,6.805,1.265,4.495,99.24349,-2.628,-1.38,47.62,0,109.5,13.23,-1.88,27.2
"2016-01-26 00:41:30",1317614,7.731,67.85,7.282,1.259,4.603,99.2432,-2.628,-1.395,47.62,0,109.5,13.23,-1.89,29.8
"2016-01-26 00:42:00",1317615,7.723,64.5,6.386,1.271,4.84,99.24349,-2.628,-1.362,47.56,0,109.5,13.23,-1.88,26.5
"2016-01-26 00:42:30",1317616,7.952,65.44,6.265,1.27,4.639,99.24377,-2.627,-1.371,47.36,0,109.5,13.24,-1.88,27.4
"2016-01-26 00:43:00",1317617,7.922,66.43,6.236,1.259,4.619,99.24377,-2.627,-1.354,47.29,0,109.5,13.24,-1.88,28.4
"2016-01-26 00:43:30",1317618,8.39,67.49,6.698,1.271,4.337,99.24348,-2.628,-1.364,47.26,0,109.5,13.24,-1.88,29.5
"2016-01-26 00:44:00",1317619,8.41,64.11,6.592,1.333,4.522,99.23866,-2.64,-1.367,47.22,0,109.5,13.24,-1.90,26.1
"2016-01-26 00:44:30",1317620,8.22,67.04,6.457,1.277,4.758,99.23556,-2.648,-1.403,47.15,0,109.5,13.24,-1.91,29.0
"2016-01-26 00:45:00",1317621,7.969,67.78,6.14,1.261,4.531,99.23186,-2.657,-1.367,47.19,0,109.5,13.24,-1.91,29.8
"2016-01-26 00:45:30",1317622,7.999,67.26,6.872,1.266,4.452,99.22734,-2.669,-1.398,47.15,0,109.5,13.24,-1.93,29.3
"2016-01-26 00:46:00",1317623,8,67.69,6.442,1.26,4.296,99.22763,-2.668,-1.391,47.05,0,109.5,13.24,-1.93,29.7
"2016-01-26 00:46:30",1317624,7.874,65.76,6.829,1.223,4.384,99.22734,-2.669,-1.414,47,0,109.5,13.24,-1.93,27.8
"2016-01-26 00:47:00",1317625,8.26,68.73,6.801,1.344,4.245,99.22734,-2.669,-1.389,47.08,0,109.5,13.24,-1.93,30.7
"2016-01-26 00:47:30",1317626,8.35,65.33,6.442,1.327,4.341,99.22734,-2.669,-1.389,47.1,0,109.5,13.24,-1.93,27.3
"2016-01-26 00:48:00",1317627,8.24,64.24,6.9,1.299,4.265,99.22734,-2.669,-1.406,47.1,0,109.5,13.24,-1.93,26.2
"2016-01-26 00:48:30",1317628,8.38,65.45,6.401,1.328,4.397,99.22592,-2.672,-1.422,47.16,0,109.5,13.24,-1.93,27.4
"2016-01-26 00:49:00",1317629,8.71,63.97,6.102,1.311,4.373,99.22111,-2.685,-1.395,46.74,0,109.5,13.24,-1.94,26.0
"2016-01-26 00:49:30",1317630,8.62,68.57,6.545,1.193,4.619,99.21772,-2.693,-1.444,46.4,0,109.5,13.24,-1.95,30.6
"2016-01-26 00:50:00",1317631,8.39,69.53,6.934,1.309,4.381,99.21403,-2.703,-1.434,46.43,0,109.5,13.24,-1.96,31.5
"2016-01-26 00:50:30",1317632,8.24,68.47,7.078,1.217,4.155,99.21147,-2.709,-1.43,46.42,0,109.5,13.24,-1.97,30.5
"2016-01-26 00:51:00",1317633,8.73,67.78,8.34,1.23,4.408,99.21146,-2.709,-1.434,46.23,0,109.5,13.24,-1.97,29.8
"2016-01-26 00:51:30",1317634,8.85,64.92,6.72,1.308,4.514,99.21006,-2.713,-1.434,45.98,0,109.5,13.24,-1.97,26.9
"2016-01-26 00:52:00",1317635,8.18,70.2,6.482,1.224,4.483,99.20979,-2.714,-1.426,45.88,0,109.5,13.24,-1.97,32.2
"2016-01-26 00:52:30",1317636,8.39,67.19,6.286,1.243,4.383,99.21091,-2.711,-1.426,46.16,0,109.5,13.24,-1.97,29.2
"2016-01-26 00:53:00",1317637,8.08,69.14,6.429,1.29,4.314,99.20979,-2.714,-1.449,46.09,0,109.5,13.23,-1.97,31.1
"2016-01-26 00:53:30",1317638,8.95,69.66,6.527,1.343,4.219,99.2044,-2.727,-1.464,45.95,0,109.5,13.23,-1.98,31.7
"2016-01-26 00:54:00",1317639,9.14,66.38,7.017,1.38,4.39,99.1976,-2.745,-1.463,45.75,0,109.5,13.23,-2.00,28.4
"2016-01-26 00:54:30",1317640,8.63,66.43,6.391,1.256,4.553,99.19335,-2.755,-1.451,45.61,0,109.5,13.23,-2.01,28.4
"2016-01-26 00:55:00",1317641,8.84,74.85,6.492,1.29,4.743,99.19392,-2.754,-1.451,45.73,0,109.5,13.23,-2.01,36.8
"2016-01-26 00:55:30",1317642,8.7,70.42,6.73,1.254,4.052,99.19307,-2.756,-1.494,45.83,0,109.5,13.23,-2.01,32.4
"2016-01-26 00:56:00",1317643,9.26,69.51,7.786,1.444,4.347,99.19279,-2.757,-1.485,45.77,0,109.5,13.23,-2.01,31.5
"2016-01-26 00:56:30",1317644,8.99,69.77,7.474,1.301,4.494,99.19193,-2.759,-1.475,45.87,0,109.5,13.23,-2.02,31.8
"2016-01-26 00:57:00",1317645,9.01,64.88,7.407,1.353,4.242,99.18684,-2.772,-1.494,45.95,0,109.5,13.23,-2.03,26.9
"2016-01-26 00:57:30",1317646,8.38,72.62,6.83,1.341,4.637,99.17892,-2.792,-1.495,46.09,0,109.5,13.23,-2.05,34.6
"2016-01-26 00:58:00",1317647,8.81,71.8,6.639,1.259,4.411,99.17664,-2.798,-1.481,46.45,0,109.5,13.23,-2.06,33.8
"2016-01-26 00:58:30",1317648,8.68,70.01,6.696,1.29,4.061,99.17664,-2.798,-1.522,46.27,0,109.5,13.23,-2.06,32.0
"2016-01-26 00:59:00",1317649,8.17,70.72,7.411,1.317,4.505,99.17664,-2.798,-1.519,46.23,0,109.5,13.24,-2.06,32.7
"2016-01-26 00:59:30",1317650,8.3,76.35,6.601,1.245,4.479,99.17748,-2.796,-1.517,46.28,0,109.5,13.24,-2.05,38.3
"2016-01-26 01:00:00",1317651,9.11,69.55,7.038,1.284,3.976,99.17297,-2.807,-1.545,46.29,0,109.5,13.24,-2.07,31.6
"2016-01-26 01:00:30",1317652,9.55,68.9,6.695,1.314,4.305,99.1639,-2.83,-1.54,46.29,0,109.5,13.24,-2.09,30.9
"2016-01-26 01:01:00",1317653,9.2,69.71,6.609,1.449,4.234,99.15965,-2.841,-1.506,46.25,0,109.5,13.24,-2.10,31.7
"2016-01-26 01:01:30",1317654,9.64,67.74,6.436,1.214,4.362,99.15398,-2.856,-1.544,46.26,0,109.5,13.24,-2.11,29.7
"2016-01-26 01:02:00",1317655,9.48,68.67,6.768,1.324,4.371,99.14604,-2.876,-1.539,46.37,0,109.5,13.24,-2.13,30.7
"2016-01-26 01:02:30",1317656,9.17,68.78,7.268,1.416,4.152,99.1435,-2.882,-1.582,46.34,0,109.5,13.24,-2.14,30.8
"2016-01-26 01:03:00",1317657,9.25,70.05,6.761,1.286,4.309,99.14378,-2.882,-1.578,46.44,0,109.5,13.24,-2.14,32.1
"2016-01-26 01:03:30",1317658,9.59,68.01,7.712,1.298,4.583,99.1449,-2.879,-1.594,46.52,0,109.5,13.24,-2.14,30.0
"2016-01-26 01:04:00",1317659,9.09,72.1,6.926,1.271,4.545,99.1412,-2.888,-1.586,46.57,0,109.5,13.24,-2.15,34.1
"2016-01-26 01:04:30",1317660,9.23,72.01,6.571,1.197,4.596,99.13073,-2.915,-1.576,46.56,0,109.5,13.24,-2.17,34.0
"2016-01-26 01:05:00",1317661,9.32,71.39,6.505,1.272,4.203,99.12959,-2.918,-1.615,46.31,0,109.5,13.24,-2.18,33.4
"2016-01-26 01:05:30",1317662,8.9,69.11,6.856,1.349,4.131,99.1293,-2.919,-1.629,46.22,0,109.5,13.24,-2.18,31.1
"2016-01-26 01:06:00",1317663,9.13,67.99,6.792,1.38,4.442,99.12193,-2.937,-1.634,46.32,0,109.5,13.24,-2.20,30.0
"2016-01-26 01:06:30",1317664,9.75,70.84,6.586,1.27,4.321,99.1171,-2.95,-1.637,46.51,0,109.5,13.24,-2.21,32.8
"2016-01-26 01:07:00",1317665,9.66,71.61,6.425,1.271,4.477,99.11568,-2.953,-1.65,46.66,0,109.5,13.24,-2.21,33.6
"2016-01-26 01:07:30",1317666,9.62,71.23,7.07,1.29,4.209,99.11597,-2.953,-1.651,46.59,0,109.5,13.24,-2.21,33.2
"2016-01-26 01:08:00",1317667,9.04,68.25,6.638,1.271,4.336,99.11624,-2.952,-1.663,46.53,0,109.5,13.24,-2.21,30.2
"2016-01-26 01:08:30",1317668,9.09,66.69,6.116,1.224,4.448,99.11624,-2.952,-1.692,46.65,0,109.5,13.24,-2.21,28.7
"2016-01-26 01:09:00",1317669,9.17,68.53,6.511,1.246,4.51,99.11369,-2.958,-1.671,46.7,0,109.5,13.24,-2.22,30.5
"2016-01-26 01:09:30",1317670,8.56,67.42,6.952,1.353,4.391,99.10803,-2.973,-1.695,46.7,0,109.5,13.24,-2.23,29.4
"2016-01-26 01:10:00",1317671,8.59,71.69,6.01,1.293,4.204,99.10208,-2.988,-1.681,46.75,0,109.5,13.23,-2.25,33.7
"2016-01-26 01:10:30",1317672,8.99,68.41,7.263,1.29,4.223,99.09953,-2.994,-1.707,46.75,0,109.5,13.23,-2.25,30.4
"2016-01-26 01:11:00",1317673,8.89,66.37,6.572,1.303,4.227,99.09727,-3,-1.709,46.81,0,109.5,13.23,-2.26,28.4
"2016-01-26 01:11:30",1317674,9.52,70.53,7.121,1.235,4.37,99.09641,-3.002,-1.703,46.87,0,109.5,13.23,-2.26,32.5
"2016-01-26 01:12:00",1317675,8.89,73.8,6.667,1.269,4.086,99.09472,-3.007,-1.726,47.29,0,109.5,13.23,-2.27,35.8
"2016-01-26 01:12:30",1317676,8.31,65.65,6.819,1.34,4.365,99.08736,-3.025,-1.734,47.13,0,109.5,13.23,-2.28,27.7
"2016-01-26 01:13:00",1317677,8.45,67.66,6.486,1.299,4.178,99.08339,-3.036,-1.712,46.87,0,109.5,13.23,-2.29,29.7
"2016-01-26 01:13:30",1317678,8.45,68.41,6.683,1.212,4.219,99.08226,-3.038,-1.761,46.81,0,109.5,13.23,-2.30,30.4
"2016-01-26 01:14:00",1317679,8.08,67.03,7.528,1.309,4.126,99.08226,-3.038,-1.76,46.84,0,109.5,13.24,-2.30,29.0
"2016-01-26 01:14:30",1317680,8.33,65.86,6.643,1.269,3.723,99.08226,-3.038,-1.76,46.83,0,109.5,13.24,-2.30,27.9
"2016-01-26 01:15:00",1317681,8.52,67.19,6.601,1.277,4.03,99.08226,-3.038,-1.769,47.14,0,109.5,13.24,-2.30,29.2
"2016-01-26 01:15:30",1317682,8.81,66.01,6.599,1.302,4.236,99.07658,-3.053,-1.776,47.19,0,109.5,13.24,-2.31,28.0
"2016-01-26 01:16:00",1317683,9.03,67.54,6.758,1.267,4.26,99.06667,-3.078,-1.765,46.97,0,109.5,13.24,-2.34,29.5
"2016-01-26 01:16:30",1317684,9,67.07,6.394,1.32,4.232,99.06413,-3.085,-1.768,46.81,0,109.5,13.24,-2.34,29.1
"2016-01-26 01:17:00",1317685,8.28,69.37,8.26,1.331,4.091,99.06016,-3.095,-1.822,46.79,0,109.5,13.24,-2.35,31.4
"2016-01-26 01:17:30",1317686,7.793,71.68,7.276,1.312,3.983,99.05364,-3.111,-1.816,47.18,0,109.5,13.24,-2.37,33.7
"2016-01-26 01:18:00",1317687,7.202,70.45,7.492,1.259,3.914,99.04911,-3.123,-1.814,47.65,0,109.5,13.25,-2.38,32.4
"2016-01-26 01:18:30",1317688,7.799,68.57,8.64,1.239,4.12,99.04826,-3.125,-1.808,47.73,0,109.4,13.24,-2.38,30.6
"2016-01-26 01:19:00",1317689,7.971,66.09,7.015,1.306,4.128,99.04826,-3.125,-1.802,47.35,0,109.5,13.24,-2.38,28.1
"2016-01-26 01:19:30",1317690,8.54,62.3,6.833,1.241,3.397,99.04826,-3.125,-1.836,47.26,0,109.5,13.24,-2.38,24.3
"2016-01-26 01:20:00",1317691,8.9,67.3,6.846,1.298,3.971,99.0477,-3.126,-1.84,47.36,0,109.5,13.25,-2.39,29.3
"2016-01-26 01:20:30",1317692,8.46,65.02,7.283,1.384,4.033,99.04232,-3.14,-1.857,47.21,0,109.5,13.24,-2.40,27.0
"2016-01-26 01:21:00",1317693,8.71,65.29,6.905,1.359,4.066,99.03439,-3.16,-1.867,47.4,0,109.5,13.25,-2.42,27.3
"2016-01-26 01:21:30",1317694,8.05,70.85,7.231,1.371,4.071,99.02956,-3.173,-1.88,47.55,0,109.5,13.25,-2.43,32.8
"2016-01-26 01:22:00",1317695,8.19,65.26,7.714,1.391,4.116,99.02901,-3.174,-1.87,47.6,0,109.5,13.25,-2.43,27.3
"2016-01-26 01:22:30",1317696,8.17,77.47,7.657,1.321,3.788,99.02447,-3.186,-1.891,47.9,0,109.5,13.25,-2.44,39.5
"2016-01-26 01:23:00",1317697,7.993,73.59,7.68,1.342,4.044,99.0205,-3.196,-1.904,48.3,0,109.5,13.25,-2.45,35.6
"2016-01-26 01:23:30",1317698,8.57,74.17,8.27,1.302,4.132,99.01455,-3.211,-1.89,48.23,0,109.5,13.24,-2.47,36.2
"2016-01-26 01:24:00",1317699,8.43,73.87,7.758,1.286,3.778,99.01427,-3.212,-1.921,48.2,0,109.5,13.25,-2.47,35.9
"2016-01-26 01:24:30",1317700,8.36,74.21,7.571,1.293,4.01,99.01427,-3.212,-1.932,48.22,0,109.5,13.25,-2.47,36.2
"2016-01-26 01:25:00",1317701,8.2,67.02,6.685,1.256,3.765,99.01399,-3.212,-1.887,48.19,0,109.5,13.25,-2.47,29.0
"2016-01-26 01:25:30",1317702,8.37,69.84,7.577,1.22,3.938,99.00379,-3.238,-1.93,47.98,0,109.5,13.25,-2.50,31.8
"2016-01-26 01:26:00",1317703,7.789,76.14,7.018,1.287,4.093,98.99728,-3.255,-1.946,48.29,0,109.5,13.24,-2.51,38.1
"2016-01-26 01:26:30",1317704,7.788,72.65,7.654,1.291,3.527,98.99303,-3.266,-1.949,48.55,0,109.5,13.24,-2.53,34.7
"2016-01-26 01:27:00",1317705,7.889,73.67,6.694,1.261,3.642,98.9902,-3.273,-1.956,48.83,0,109.5,13.24,-2.53,35.7
"2016-01-26 01:27:30",1317706,9.03,70.81,7.719,1.32,3.81,98.98283,-3.292,-1.96,49.01,0,109.5,13.24,-2.55,32.8
"2016-01-26 01:28:00",1317707,8.29,75.53,7.204,1.495,3.998,98.98028,-3.298,-1.955,48.95,0,109.5,13.24,-2.56,37.5
"2016-01-26 01:28:30",1317708,7.656,78.96,6.417,1.239,4.139,98.98028,-3.298,-1.961,49.13,0,109.5,13.24,-2.56,41.0
"2016-01-26 01:29:00",1317709,7.836,78.91,7.219,1.254,3.743,98.98056,-3.297,-1.981,49.13,0,109.5,13.24,-2.56,40.9
"2016-01-26 01:29:30",1317710,7.817,72.18,8.99,1.329,3.55,98.98028,-3.298,-2.01,49.21,0,109.5,13.24,-2.56,34.2
"2016-01-26 01:30:00",1317711,7.351,72.63,6.595,1.277,3.731,98.98,-3.299,-1.989,49.12,0,109.5,13.24,-2.56,34.6
"2016-01-26 01:30:30",1317712,7.942,73.83,7.131,1.272,3.887,98.97632,-3.308,-2.003,49.15,0,109.4,13.24,-2.57,35.8
"2016-01-26 01:31:00",1317713,7.852,74.99,6.601,1.481,3.809,98.96724,-3.331,-2.006,49.09,0,109.5,13.24,-2.59,37.0
"2016-01-26 01:31:30",1317714,7.902,80,6.649,1.349,3.562,98.96328,-3.341,-2.003,49.3,0,109.5,13.24,-2.60,42.0
"2016-01-26 01:32:00",1317715,7.805,79.23,7.137,1.235,3.615,98.96384,-3.34,-2.019,49.37,0,109.5,13.25,-2.60,41.2
"2016-01-26 01:32:30",1317716,8.05,81.2,7.034,1.288,3.829,98.96045,-3.349,-2.049,49.43,0,109.5,13.25,-2.61,43.2
"2016-01-26 01:33:00",1317717,7.68,85.2,6.804,1.198,4.113,98.95506,-3.362,-2.023,49.6,0,109.5,13.25,-2.62,47.2
"2016-01-26 01:33:30",1317718,7.183,86.2,7.525,1.375,3.869,98.94855,-3.379,-2.05,49.7,0,109.5,13.25,-2.64,48.2
"2016-01-26 01:34:00",1317719,7.602,86.8,6.428,1.278,3.846,98.94742,-3.382,-2.046,49.92,0,109.5,13.25,-2.64,48.8
"2016-01-26 01:34:30",1317720,7.196,75.36,6.837,1.289,3.575,98.94629,-3.385,-2.058,49.99,0,109.5,13.25,-2.64,37.4
"2016-01-26 01:35:00",1317721,6.509,70.28,7.904,1.378,3.192,98.94657,-3.384,-2.071,49.47,0,109.5,13.25,-2.64,32.3
"2016-01-26 01:35:30",1317722,6.826,81.6,8.28,1.42,2.925,98.94714,-3.383,-2.088,49.51,0,109.5,13.25,-2.64,43.6
"2016-01-26 01:36:00",1317723,7.766,85.1,6.495,1.377,3.813,98.94741,-3.382,-2.096,49.66,0,109.5,13.25,-2.64,47.1
"2016-01-26 01:36:30",1317724,8.04,84.1,7.84,1.373,3.48,98.94657,-3.384,-2.068,49.8,0,109.5,13.25,-2.64,46.1
"2016-01-26 01:37:00",1317725,7.718,85.9,7.791,1.446,3.782,98.94657,-3.384,-2.085,49.96,0,109.5,13.25,-2.64,47.9
"2016-01-26 01:37:30",1317726,8.53,80.6,7.205,1.346,3.979,98.94346,-3.392,-2.094,50,0,109.5,13.25,-2.65,42.6
"2016-01-26 01:38:00",1317727,7.685,85.8,6.826,1.395,3.606,98.93496,-3.414,-2.082,50.05,0,109.5,13.25,-2.67,47.8
"2016-01-26 01:38:30",1317728,7.636,85,6.329,1.249,3.858,98.93042,-3.425,-2.075,50.13,0,109.5,13.25,-2.69,47.0
"2016-01-26 01:39:00",1317729,7.699,84.9,6.419,1.176,3.872,98.92986,-3.427,-2.083,50.14,0,109.5,13.25,-2.69,46.9
"2016-01-26 01:39:30",1317730,8.22,83.9,6.778,1.254,3.444,98.92929,-3.428,-2.112,50.04,0,109.5,13.25,-2.69,45.9
"2016-01-26 01:40:00",1317731,7.793,79.96,7.335,1.273,3.411,98.92647,-3.435,-2.13,49.97,0,109.5,13.25,-2.70,42.0
"2016-01-26 01:40:30",1317732,7.982,75.73,7.325,1.34,3.741,98.92333,-3.443,-2.124,49.78,0,109.5,13.25,-2.70,37.7
"2016-01-26 01:41:00",1317733,7.913,76.87,7.329,1.365,3.801,98.91512,-3.464,-2.127,49.58,0,109.5,13.25,-2.72,38.9
"2016-01-26 01:41:30",1317734,7.949,80.6,6.859,1.359,3.555,98.91286,-3.47,-2.105,49.38,0,109.4,13.25,-2.73,42.6
"2016-01-26 01:42:00",1317735,7.893,80.1,7.052,1.305,3.524,98.91427,-3.466,-2.127,49.25,0,109.5,13.25,-2.73,42.1
"2016-01-26 01:42:30",1317736,8.12,92.9,7.848,1.199,3.917,98.91483,-3.465,-2.133,49.52,0,109.5,13.24,-2.73,54.9
"2016-01-26 01:43:00",1317737,8.17,88.8,5.929,1.266,3.739,98.9165,-3.461,-2.129,49.86,0,109.5,13.24,-2.72,50.8
"2016-01-26 01:43:30",1317738,7.568,85.4,7.425,1.268,3.626,98.9179,-3.457,-2.15,50.04,0,109.5,13.24,-2.72,47.4
"2016-01-26 01:44:00",1317739,7.689,84,7.063,1.32,3.88,98.9165,-3.461,-2.158,50.16,0,109.5,13.24,-2.72,46.0
"2016-01-26 01:44:30",1317740,7.115,79.78,6.691,1.252,3.455,98.91483,-3.465,-2.18,49.99,0,109.5,13.24,-2.73,41.8
"2016-01-26 01:45:00",1317741,6.598,82,8.44,1.257,3.429,98.91257,-3.471,-2.196,50.11,0,109.5,13.24,-2.73,44.0
"2016-01-26 01:45:30",1317742,5.876,94.3,9.22,1.451,3.028,98.91312,-3.469,-2.186,50.33,0,109.5,13.24,-2.73,56.3
"2016-01-26 01:46:00",1317743,5.858,103.9,9.39,1.34,2.972,98.90886,-3.48,-2.19,50.43,0,109.5,13.24,-2.74,65.9